Simultaneous Nadir Overpasses (SNOs) Predictions

Prediction of SNOs near US between AQUA and NPP Satellite Orbit:

Table of predicted SNOs near US for the next 10.0 days since TLE Epoch: 5/6/2016
Index Date (AQUA) Time (AQUA) AQUA Lat,Lon Date (NPP) Time (NPP) NPP Lat,Lon Distance(km) Time Diff (sec)
1 05/08/2016 07:19:26 49.91, -76.14 05/08/2016 07:21:14 50.30, -78.20 152.86 108
2 05/08/2016 08:58:19 49.91,-100.86 05/08/2016 09:02:42 50.41,-103.52 197.44 263
3 05/10/2016 18:17:32 49.99, -80.30 05/10/2016 18:11:31 49.74, -81.74 106.81 361
4 05/10/2016 19:56:25 49.99,-105.02 05/10/2016 19:52:59 49.63,-107.06 152.04 206
5 05/10/2016 21:31:27 36.29,-124.99 05/10/2016 21:30:30 35.85,-127.44 225.12 57
6 05/13/2016 09:24:02 23.62,-113.51 05/13/2016 09:16:42 23.67,-113.83 32.69 440
7 05/16/2016 06:30:41 46.65, -65.04 05/16/2016 06:31:26 47.03, -66.92 149.36 45
8 05/16/2016 08:08:39 49.91, -88.46 05/16/2016 08:11:58 50.36, -90.87 178.89 199




NCC Satellite Simultaneous Nadir Overpasses (SNOs) Prediction Service
